EZY371M EGGW-EGPH

Flight info

Callsign EZY371M
Flight time 0h 48m
Altitude 32000
Route OLNEY T420 TNT UN57 POL UN601 RIBEL DCT INPIP
Aircraft A319/M-SDE3FGHIRWY/LB1

Departure

Time 2026-04-23 18:43
Airport London Luton Airport (EGGW)

Arrival

Time 2026-04-23 19:31
Airport Edinburgh Airport (EGPH)
Time Latitude Longitude Altitude Speed Heading
2026-04-23 18:01 51.88159 -0.37455 534 ft 0 kts 161°
2026-04-23 18:33 51.88169 -0.37460 534 ft 4 kts 161°
2026-04-23 18:33 51.88195 -0.37474 534 ft 3 kts 161°
2026-04-23 18:34 51.88216 -0.37483 534 ft 4 kts 190°
2026-04-23 18:34 51.88236 -0.37464 534 ft 4 kts 238°
2026-04-23 18:34 51.88247 -0.37425 534 ft 4 kts 252°
2026-04-23 18:34 51.88255 -0.37385 534 ft 4 kts 252°
2026-04-23 18:35 51.88263 -0.37344 534 ft 4 kts 252°
2026-04-23 18:35 51.88271 -0.37305 534 ft 4 kts 246°
2026-04-23 18:35 51.88286 -0.37277 534 ft 4 kts 190°
2026-04-23 18:35 51.88310 -0.37280 534 ft 4 kts 163°
2026-04-23 18:36 51.88320 -0.37286 534 ft 0 kts 163°
2026-04-23 18:37 51.88319 -0.37285 534 ft 1 kts 163°
2026-04-23 18:38 51.88300 -0.37276 534 ft 6 kts 163°
2026-04-23 18:38 51.88244 -0.37247 534 ft 11 kts 162°
2026-04-23 18:38 51.88151 -0.37197 534 ft 16 kts 162°
2026-04-23 18:38 51.88033 -0.37134 534 ft 19 kts 161°
2026-04-23 18:39 51.87900 -0.37063 534 ft 21 kts 162°
2026-04-23 18:39 51.87760 -0.36988 534 ft 16 kts 161°
2026-04-23 18:39 51.87668 -0.36941 534 ft 12 kts 167°
2026-04-23 18:39 51.87620 -0.37033 534 ft 13 kts 254°
2026-04-23 18:40 51.87594 -0.37187 534 ft 16 kts 253°
2026-04-23 18:40 51.87586 -0.37371 535 ft 14 kts 282°
2026-04-23 18:40 51.87547 -0.37463 536 ft 12 kts 201°
2026-04-23 18:40 51.87500 -0.37580 536 ft 14 kts 255°
2026-04-23 18:41 51.87470 -0.37750 536 ft 17 kts 253°
2026-04-23 18:41 51.87435 -0.37939 536 ft 15 kts 253°
2026-04-23 18:41 51.87388 -0.38044 536 ft 12 kts 215°
2026-04-23 18:41 51.87302 -0.38116 533 ft 14 kts 195°
2026-04-23 18:42 51.87246 -0.38097 533 ft 5 kts 132°
2026-04-23 18:42 51.87253 -0.38049 533 ft 7 kts 73°
2026-04-23 18:42 51.87329 -0.37621 536 ft 79 kts 74°
2026-04-23 18:42 51.87542 -0.36381 550 ft 145 kts 74°
2026-04-23 18:43 51.87812 -0.34798 1274 ft 144 kts 75°
2026-04-23 18:43 51.88087 -0.33249 2137 ft 142 kts 75°
2026-04-23 18:43 51.88359 -0.31734 2890 ft 139 kts 75°
2026-04-23 18:43 51.88628 -0.30231 3594 ft 138 kts 75°
2026-04-23 18:44 51.88912 -0.28642 3961 ft 164 kts 75°
2026-04-23 18:44 51.89555 -0.26907 3991 ft 198 kts 40°
2026-04-23 18:44 51.90910 -0.26336 4012 ft 215 kts 355°
2026-04-23 18:44 51.92285 -0.27384 4065 ft 227 kts 322°
2026-04-23 18:45 51.93379 -0.29444 4528 ft 255 kts 308°
2026-04-23 18:45 51.94484 -0.31869 5202 ft 276 kts 307°
2026-04-23 18:45 51.95626 -0.34424 6170 ft 283 kts 307°
2026-04-23 18:45 51.96781 -0.37027 7209 ft 287 kts 307°
2026-04-23 18:46 51.97954 -0.39681 8201 ft 291 kts 307°
2026-04-23 18:46 51.99140 -0.42370 9216 ft 296 kts 307°
2026-04-23 18:46 52.00330 -0.45070 10195 ft 300 kts 308°
2026-04-23 18:46 52.01570 -0.47874 10874 ft 316 kts 308°
2026-04-23 18:47 52.02892 -0.50852 11435 ft 332 kts 309°
2026-04-23 18:47 52.04575 -0.53497 12267 ft 335 kts 326°
2026-04-23 18:47 52.06451 -0.55685 13202 ft 338 kts 327°
2026-04-23 18:47 52.08375 -0.57913 14136 ft 342 kts 327°
2026-04-23 18:48 52.10326 -0.60166 14934 ft 346 kts 327°
2026-04-23 18:48 52.12299 -0.62450 15721 ft 351 kts 327°
2026-04-23 18:48 52.14300 -0.64767 16485 ft 356 kts 327°
2026-04-23 18:48 52.16324 -0.67115 17245 ft 360 kts 326°
2026-04-23 18:49 52.18379 -0.69506 18003 ft 365 kts 326°
2026-04-23 18:49 52.20456 -0.71928 18769 ft 370 kts 326°
2026-04-23 18:49 52.22558 -0.74390 19417 ft 374 kts 325°
2026-04-23 18:49 52.24685 -0.76888 20065 ft 379 kts 325°
2026-04-23 18:50 52.26136 -0.78596 20502 ft 382 kts 324°
2026-04-23 18:50 52.29018 -0.81991 21336 ft 389 kts 324°
2026-04-23 18:50 52.31226 -0.84585 22013 ft 393 kts 324°
2026-04-23 18:50 52.33459 -0.87205 22680 ft 397 kts 323°
2026-04-23 18:51 52.35715 -0.89859 23328 ft 402 kts 323°
2026-04-23 18:51 52.38002 -0.92550 23961 ft 407 kts 323°
2026-04-23 18:51 52.40311 -0.95276 24501 ft 412 kts 323°
2026-04-23 18:51 52.42650 -0.98041 25046 ft 417 kts 322°
2026-04-23 18:52 52.45015 -1.00841 25587 ft 419 kts 324°
2026-04-23 18:52 52.47374 -1.03636 26231 ft 419 kts 324°
2026-04-23 18:52 52.49742 -1.06445 26809 ft 421 kts 324°
2026-04-23 18:52 52.52122 -1.09276 27344 ft 424 kts 323°
2026-04-23 18:53 52.54518 -1.12128 27869 ft 426 kts 323°
2026-04-23 18:53 52.56928 -1.14996 28378 ft 429 kts 323°
2026-04-23 18:53 52.59355 -1.17890 28857 ft 433 kts 323°
2026-04-23 18:53 52.61805 -1.20815 29342 ft 437 kts 323°
2026-04-23 18:54 52.64272 -1.23765 29823 ft 440 kts 323°
2026-04-23 18:54 52.66753 -1.26737 30308 ft 443 kts 323°
2026-04-23 18:54 52.69258 -1.29746 30717 ft 446 kts 323°
2026-04-23 18:54 52.71803 -1.32693 31129 ft 449 kts 326°
2026-04-23 18:55 52.74441 -1.35506 31663 ft 452 kts 328°
2026-04-23 18:55 52.77214 -1.37949 32101 ft 453 kts 336°
2026-04-23 18:55 52.80105 -1.40024 32376 ft 452 kts 336°
2026-04-23 18:56 52.84870 -1.43509 32439 ft 453 kts 336°
2026-04-23 18:56 52.91634 -1.48495 32437 ft 456 kts 336°
2026-04-23 18:57 52.97431 -1.52751 32450 ft 453 kts 337°
2026-04-23 18:57 53.00267 -1.54836 32425 ft 439 kts 337°
2026-04-23 18:57 53.03041 -1.56877 32444 ft 434 kts 337°
2026-04-23 18:58 53.08543 -1.60923 32438 ft 432 kts 337°
2026-04-23 18:58 53.14031 -1.64968 32442 ft 431 kts 337°
2026-04-23 18:59 53.19524 -1.69034 32439 ft 432 kts 337°
2026-04-23 18:59 53.25012 -1.73106 32450 ft 432 kts 337°
2026-04-23 19:00 53.30498 -1.77203 32436 ft 432 kts 337°
2026-04-23 19:00 53.35980 -1.81296 32440 ft 431 kts 337°
2026-04-23 19:01 53.41460 -1.85408 32434 ft 432 kts 337°
2026-04-23 19:01 53.46936 -1.89522 32430 ft 431 kts 337°
2026-04-23 19:02 53.51492 -1.92952 32433 ft 432 kts 336°
2026-04-23 19:02 53.57893 -1.97793 32437 ft 431 kts 337°
2026-04-23 19:03 53.63374 -2.01940 32429 ft 432 kts 336°
2026-04-23 19:03 53.68847 -2.06108 32432 ft 432 kts 337°
2026-04-23 19:04 53.74311 -2.10287 32444 ft 430 kts 337°
2026-04-23 19:04 53.79794 -2.14186 32471 ft 426 kts 340°
2026-04-23 19:05 53.85254 -2.17811 32475 ft 423 kts 340°
2026-04-23 19:05 53.90724 -2.21463 32469 ft 422 kts 340°
2026-04-23 19:06 53.96160 -2.25184 32473 ft 421 kts 339°
2026-04-23 19:06 54.01584 -2.28930 32460 ft 421 kts 339°
2026-04-23 19:07 54.07007 -2.32673 32458 ft 421 kts 339°
2026-04-23 19:07 54.12430 -2.36421 32456 ft 420 kts 339°
2026-04-23 19:08 54.17847 -2.40193 32453 ft 420 kts 339°
2026-04-23 19:08 54.23262 -2.43960 32445 ft 420 kts 339°
2026-04-23 19:09 54.28685 -2.47733 32448 ft 421 kts 339°
2026-04-23 19:09 54.34098 -2.51529 32441 ft 420 kts 339°
2026-04-23 19:10 54.39513 -2.55333 32438 ft 420 kts 339°
2026-04-23 19:10 54.42222 -2.57244 32331 ft 421 kts 339°
2026-04-23 19:10 54.44903 -2.59263 32105 ft 422 kts 337°
2026-04-23 19:10 54.47559 -2.61411 31851 ft 422 kts 335°
2026-04-23 19:11 54.50200 -2.63634 31594 ft 423 kts 335°
2026-04-23 19:11 54.52834 -2.65890 31350 ft 424 kts 335°
2026-04-23 19:11 54.55479 -2.68154 31103 ft 424 kts 335°
2026-04-23 19:11 54.58129 -2.70406 30853 ft 426 kts 335°
2026-04-23 19:12 54.59935 -2.71927 30681 ft 428 kts 335°
2026-04-23 19:12 54.63491 -2.74891 30342 ft 429 kts 335°
2026-04-23 19:12 54.66188 -2.77125 30054 ft 430 kts 335°
2026-04-23 19:12 54.68869 -2.79350 29445 ft 425 kts 335°
2026-04-23 19:13 54.71519 -2.81556 28798 ft 420 kts 335°
2026-04-23 19:13 54.74135 -2.83742 28180 ft 415 kts 335°
2026-04-23 19:13 54.76716 -2.85912 27561 ft 411 kts 335°
2026-04-23 19:13 54.79272 -2.88072 26962 ft 407 kts 335°
2026-04-23 19:14 54.81805 -2.90211 26370 ft 403 kts 335°
2026-04-23 19:14 54.84317 -2.92330 25775 ft 401 kts 335°
2026-04-23 19:14 54.86820 -2.94440 25180 ft 398 kts 335°
2026-04-23 19:14 54.89305 -2.96540 24608 ft 396 kts 335°
2026-04-23 19:15 54.91779 -2.98635 24038 ft 395 kts 335°
2026-04-23 19:15 54.94245 -3.00722 23448 ft 393 kts 334°
2026-04-23 19:15 54.96696 -3.02801 22922 ft 390 kts 334°
2026-04-23 19:15 54.99122 -3.04864 22441 ft 386 kts 334°
2026-04-23 19:16 55.01528 -3.06912 21943 ft 383 kts 334°
2026-04-23 19:16 55.03911 -3.08946 21487 ft 380 kts 334°
2026-04-23 19:16 55.06271 -3.10964 21021 ft 376 kts 334°
2026-04-23 19:17 55.10938 -3.14952 20073 ft 370 kts 334°
2026-04-23 19:17 55.12500 -3.16286 19743 ft 369 kts 334°
2026-04-23 19:17 55.14798 -3.18252 19269 ft 367 kts 333°
2026-04-23 19:17 55.17083 -3.20212 18779 ft 365 kts 333°
2026-04-23 19:18 55.19329 -3.22140 18243 ft 364 kts 333°
2026-04-23 19:18 55.21594 -3.24092 17740 ft 361 kts 333°
2026-04-23 19:18 55.23839 -3.26033 17238 ft 359 kts 333°
2026-04-23 19:18 55.26072 -3.27965 16739 ft 357 kts 333°
2026-04-23 19:19 55.30503 -3.31813 15667 ft 355 kts 333°
2026-04-23 19:19 55.32730 -3.33741 15056 ft 358 kts 333°
2026-04-23 19:20 55.37181 -3.37597 14072 ft 354 kts 332°
2026-04-23 19:20 55.39377 -3.39508 13541 ft 351 kts 332°
2026-04-23 19:20 55.41559 -3.41409 12951 ft 350 kts 332°
2026-04-23 19:20 55.43742 -3.43313 12318 ft 350 kts 332°
2026-04-23 19:21 55.45918 -3.45214 11740 ft 348 kts 332°
2026-04-23 19:21 55.50231 -3.48989 10744 ft 340 kts 332°
2026-04-23 19:21 55.52307 -3.50805 10622 ft 325 kts 332°
2026-04-23 19:22 55.54291 -3.52540 10499 ft 312 kts 332°
2026-04-23 19:22 55.56192 -3.54207 10370 ft 299 kts 332°
2026-04-23 19:22 55.59852 -3.57462 9651 ft 291 kts 332°
2026-04-23 19:23 55.61652 -3.59085 9250 ft 289 kts 332°
2026-04-23 19:23 55.63431 -3.60697 8853 ft 286 kts 332°
2026-04-23 19:23 55.65194 -3.62298 8374 ft 283 kts 331°
2026-04-23 19:24 55.68660 -3.65463 7266 ft 277 kts 332°
2026-04-23 19:24 55.70359 -3.67031 6654 ft 273 kts 332°
2026-04-23 19:24 55.73709 -3.70109 5317 ft 271 kts 332°
2026-04-23 19:25 55.76975 -3.73062 4876 ft 251 kts 332°
2026-04-23 19:25 55.80105 -3.74549 4606 ft 229 kts 14°
2026-04-23 19:26 55.82827 -3.72145 4391 ft 209 kts 39°
2026-04-23 19:26 55.83735 -3.70246 4205 ft 200 kts 60°
2026-04-23 19:27 55.85149 -3.66109 3707 ft 192 kts 61°
2026-04-23 19:27 55.87181 -3.60180 2953 ft 183 kts 60°
2026-04-23 19:28 55.88495 -3.56343 2462 ft 179 kts 61°
2026-04-23 19:28 55.89767 -3.52621 1966 ft 174 kts 61°
2026-04-23 19:29 55.90389 -3.50797 1741 ft 169 kts 60°
2026-04-23 19:29 55.91529 -3.47457 1307 ft 148 kts 61°
2026-04-23 19:30 55.92530 -3.44518 914 ft 130 kts 61°
2026-04-23 19:30 55.92993 -3.43153 720 ft 127 kts 59°
2026-04-23 19:30 55.93892 -3.40511 390 ft 123 kts 60°
2026-04-23 19:31 55.94335 -3.39209 224 ft 123 kts 60°
2026-04-23 19:31 55.94773 -3.37919 118 ft 113 kts 59°
2026-04-23 19:31 55.95087 -3.36991 114 ft 57 kts 58°
2026-04-23 19:31 55.95231 -3.36570 112 ft 17 kts 58°
2026-04-23 19:32 55.95260 -3.36458 111 ft 8 kts 92°
2026-04-23 19:32 55.95221 -3.36384 114 ft 7 kts 146°
2026-04-23 19:32 55.95183 -3.36342 113 ft 7 kts 148°
2026-04-23 19:32 55.95144 -3.36278 116 ft 9 kts 114°
2026-04-23 19:33 55.95124 -3.36161 114 ft 8 kts 107°
2026-04-23 19:33 55.95109 -3.36079 114 ft 7 kts 108°
2026-04-23 19:33 55.95078 -3.35980 116 ft 2 kts 180°
2026-04-23 19:34 55.95065 -3.36017 115 ft 5 kts 242°
2026-04-23 19:34 55.95045 -3.36069 114 ft 5 kts 233°
2026-04-23 19:34 55.95033 -3.36096 114 ft 0 kts 232°